Location: Bremen
(53.0796°N, 8.8241°E)
Time: 12:49:28
(UTC+01:00)

ISS - Pass Details

Date: 15 November 2017
Orbit: 402 x 407 km, 51.6° (Epoch: 21 November)

Event Time Altitude Azimuth Distance (km) Brightness Sun altitude
Exits shadow 06:28:16 11° 238° (WSW) 1,402 -1.5 -12.0°
Maximum altitude 06:29:14 12° 220° (SW) 1,337 -1.4 -11.8°
Drops below altitude 10° 06:30:34 10° 195° (SSW) 1,451 -1.0 -11.6°
Sets 06:33:39 0° 163° (SSE) 2,305 0.5 -11.2°
